Location: Unspecified
(0.0000°N, 0.0000°E)
Time: 18:48:56
(UTC+00:00)

LightSail 2 - Pass Details

Date: 19 November 2019
Orbit: 695 x 731 km, 24.0° (Epoch: 05 December)

Event Time Altitude Azimuth Distance (km) Brightness Sun altitude
Rises 20:24:47 0° 253° (WSW) 3,058 9.4 -37.1°
Reaches altitude 10° 20:27:15 10° 258° (WSW) 2,139 8.3 -37.7°
Enters shadow 20:28:34 18° 263° (W) 1,668 7.6 -38.0°
